Find Starlink 5090

NORAD ID: 56137 Int'l Des: 2023-046 Owner: SPXS Country: US Constellation: starlink operational
LEOCIRCULAR

Current View

Loading 3D Globe...

About Starlink 5090

Description loading...

Upcoming Passes

Passes for default location (London). Set your location on the main map for personalized predictions.

Altitude History

Loading altitude history...

Two-Line Element Set

1 56137U 23046AX 26150.76660267 .00001182 00000-0 52491-4 0 9998
2 56137 43.0062 43.3779 0001451 269.6368 90.4318 15.27573165174754
Epoch: May 30, 2026 • Age: 9 hours

Current Status

Altitude 482.5 km
Velocity 7.63 km/s
Sub-Earth Point 5.07°N, 77.65°W
Launch Date Mar 29, 2023
Age 3.1 years
Type internet

Technical Details

Classification Payload
Mass 305.00 kg
Dry Mass 290.00 kg
Total Mass 305.00 kg
Length 0.20 m
Diameter 2.80 m
Span 9.00 m
Shape Box + pan
Manufacturer SPXS
Bus Type Starlink
Phase Status In Orbit
Owner/State SPXS/US

Most Searched